Zurück zum Katalog

STARLINK-36356

AktivKommunikationVLEO
NORAD 68242·PAYLOAD·🇺🇸 United States

Gestartet Mar 17, 2026 von Vandenberg Space Force Base

Loading…

Nächste Überflüge (nächste 24 Stunden)

TLE

AktuellSource: CelesTrak SupGP

Epoche: Sep 14, 2026, 23:14 UTC

1 68242C 26054L   26257.96854167 -.00041169  00000+0 -12164-2 0  2572
2 68242  53.1570 135.8369 0001299  87.4697  73.4715 15.34409933    11

Verfolge STARLINK-36356 in Echtzeit mit AllMySat

Download on the App Store